Погода в Гелиболу

Турция     40°24′37″N   26°40′34″E
темп.,
°C
ветер,
м/с
пор.,
м/с
влажн.,
%
обл.,
%
осадки,
мм/ч
давл.,
гПа
погр.,
м
25 октября, пн
пн2500:00+12св9136678 0.0 1030989
03:00+12св8126753 0.0 1029967
06:00+11св81269100 0.0 1029799
09:00+11ссв813691 0.0 1029935
12:00+14всв1113513 0.0 10291650
15:00+15всв1112491 0.0 10271693
18:00+14всв1012543 0.0 10271374
21:00+12св8116352 0.0 10271120
26 октября, вт
вт2600:00+12св8116692 0.0 10271034
03:00+14всв9116293 0.0 10251338
06:00+13св8117059 0.0 1024944
09:00+12св8117462 0.0 1024917
12:00+15всв10115917 0.0 10241334
15:00+16всв89530 0.0 10211341
18:00+16всв810590 0.0 10211023
21:00+14св710701 0.0 1021743
27 октября, ср
ср2700:00+13св69761 0.0 1021522
03:00+12ссв578023 0.0 1021319
06:00+11ссв578248 0.0 1021268
09:00+12ссв578034 0.0 1022315
12:00+15всв676349 0.0 10221191
15:00+17в78593 0.0 10201203
18:00+16всв896422 0.0 10211006
21:00+14св796914 0.0 1022733
28 октября, чт
чт2800:00+12св687951 0.0 1022383
03:00+12ссв698376 0.1 1022437
06:00+13св7118285 0.1 1022708
09:00+13св7108387 0.1 1023634
12:00+16всв10116796 0.1 10231271
15:00+17в10116315 0.1 10221187
18:00+16всв9116592 0.0 1022894
21:00+13всв8107210 0.0 1024696
29 октября, пт
пт2900:00+13всв7117536 0.0 1024704
03:00+12св7107849 0.0 1023613
06:00+11св7118253 0.0 1023510
09:00+12св7118066 0.0 1023548
12:00+15всв9116667 0.0 10231115
15:00+17всв910611 0.0 10211150
18:00+16всв810625 0.0 1021867
21:00+14всв710735 0.0 1022647